N0DBM Weather Reports


time (UTC)temp
F
wind
direction
speed
knots
gust
knots
rain 1hr
in
rain 24hr
in
rain mn
in
humidity
%
barometer
mb
20260504200010 79 190 5.2 12.2 0.00 0.02 0.02 43 1001.7
20260504195503 79 190 2.6 8.7 0.00 0.02 0.02 43 1001.6
20260504195004 79 190 3.5 8.7 0.00 0.02 0.02 44 1001.7
20260504194516 79 190 4.3 13.0 0.00 0.02 0.02 42 1001.9
20260504194009 79 190 5.2 13.0 0.00 0.02 0.02 44 1002.0
20260504193509 79 190 4.3 12.2 0.00 0.02 0.02 45 1002.0
20260504193022 79 190 6.1 12.2 0.00 0.02 0.02 44 1002.0
20260504192509 78 190 4.3 11.3 0.00 0.02 0.02 44 1002.0
20260504192009 78 190 5.2 11.3 0.00 0.02 0.02 42 1002.0
20260504191526 78 190 4.3 8.7 0.00 0.02 0.02 43 1002.0
20260504191008 78 190 5.2 10.4 0.00 0.02 0.02 43 1002.1
20260504190503 78 190 3.5 10.4 0.00 0.02 0.02 42 1002.1
20260504190009 78 190 3.5 9.6 0.00 0.02 0.02 44 1002.1
20260504185504 78 190 4.3 11.3 0.00 0.02 0.02 44 1002.1
20260504185003 77 190 5.2 11.3 0.00 0.02 0.02 44 1002.2
20260504184514 77 190 4.3 11.3 0.00 0.02 0.02 44 1002.2
20260504184005 77 190 5.2 11.3 0.00 0.02 0.02 43 1002.3
20260504183504 77 190 4.3 10.4 0.00 0.02 0.02 45 1002.2
20260504183020 77 190 5.2 11.3 0.00 0.02 0.02 44 1002.4
20260504182507 77 190 6.1 11.3 0.00 0.02 0.02 45 1002.4
20260504182008 76 190 4.3 13.0 0.00 0.02 0.02 45 1002.4
20260504181522 76 190 5.2 13.0 0.00 0.02 0.02 46 1002.4
20260504181008 76 190 4.3 10.4 0.00 0.02 0.02 45 1002.4
20260504180509 76 190 4.3 12.2 0.00 0.02 0.02 44 1002.3
20260504180026 76 190 7.0 12.2 0.00 0.02 0.02 43 1002.4
20260504175507 76 190 1.7 13.9 0.00 0.02 0.02 47 1002.3
20260504175004 76 190 6.1 13.9 0.00 0.02 0.02 45 1002.4
20260504174511 76 190 5.2 9.6 0.00 0.02 0.02 47 1002.4
20260504174004 76 190 3.5 8.7 0.00 0.02 0.02 49 1002.5
20260504173505 75 190 4.3 9.6 0.00 0.02 0.02 48 1002.5
20260504173014 75 190 3.5 12.2 0.00 0.02 0.02 48 1002.6
20260504172504 74 190 6.1 12.2 0.00 0.02 0.02 47 1002.6
20260504172008 75 190 6.1 12.2 0.00 0.02 0.02 47 1002.7
20260504171521 75 190 3.5 12.2 0.00 0.02 0.02 48 1002.8
20260504171008 74 190 3.5 11.3 0.00 0.02 0.02 48 1002.9
20260504170508 74 190 3.5 13.0 0.00 0.02 0.02 50 1003.0
20260504151007 70 190 5.2 15.6 0.00 0.02 0.02 53 1003.4
20260504150507 70 190 7.0 13.9 0.00 0.02 0.02 51 1003.4
20260504141006 68 190 5.2 11.3 0.00 0.02 0.02 55 1003.7
20260504140503 68 190 6.1 10.4 0.00 0.02 0.02 54 1003.7
20260504130505 65 190 3.5 10.4 0.00 0.02 0.02 62 1004.0
20260504110507 60 190 0.0 3.5 0.02 0.02 0.02 74 1004.2
20260504100507 61 190 1.7 7.8 0.00 0.00 0.00 70 1005.5
20260504082004 58 190 0.9 1.7 0.00 0.00 0.00 71 1005.7
20260504081515 58 190 0.0 0.0 0.00 0.00 0.00 71 1005.5
20260504081006 58 190 0.0 0.0 0.00 0.00 0.00 70 1005.5
20260504080506 58 190 0.0 0.0 0.00 0.00 0.00 70 1005.7
20260504050504 58 190 0.0 0.0 0.00 0.00 0.00 70 1007.7
20260504050019 58 190 0.0 0.0 0.00 0.00 0.00 67 1008.0
20260504045504 59 190 0.0 0.0 0.00 0.00 0.00 65 1007.9
20260504045003 59 190 0.0 0.0 0.00 0.00 0.00 65 1007.8
20260504044517 59 190 0.0 0.0 0.00 0.00 0.00 65 1007.8
20260504044003 59 190 0.0 0.0 0.00 0.00 0.00 65 1007.9
20260504043506 59 190 0.0 0.0 0.00 0.00 0.00 66 1007.8
20260504043024 59 190 0.0 0.0 0.00 0.00 0.00 66 1007.9
20260504042508 59 190 0.0 0.0 0.00 0.00 0.00 66 1008.0
20260504042010 59 190 0.0 0.0 0.00 0.00 0.00 65 1008.0
20260504041532 60 190 0.0 0.0 0.00 0.00 0.00 63 1008.0
20260504041006 60 190 0.0 0.0 0.00 0.00 0.00 65 1008.1
20260504040505 60 190 0.0 0.0 0.00 0.00 0.00 65 1008.1
20260504040023 60 190 0.0 0.0 0.00 0.00 0.00 64 1008.1
20260504035508 60 190 0.0 0.0 0.00 0.00 0.00 66 1008.2
20260504035005 60 190 0.0 0.0 0.00 0.00 0.00 66 1008.3
20260504034518 60 190 0.0 0.0 0.00 0.00 0.00 66 1008.3
20260504034004 61 190 0.0 0.0 0.00 0.00 0.00 64 1008.2
20260504033504 61 190 0.0 0.0 0.00 0.00 0.00 64 1008.2
20260504033016 61 190 0.0 0.0 0.00 0.00 0.00 62 1008.2
20260504032507 61 190 0.0 0.0 0.00 0.00 0.00 61 1008.2
20260504032007 62 190 0.0 0.0 0.00 0.00 0.00 60 1008.3
20260504031522 62 190 0.0 0.0 0.00 0.00 0.00 60 1008.4
20260504031008 62 190 0.0 0.0 0.00 0.00 0.00 62 1008.4
20260504030507 62 190 0.0 0.0 0.00 0.00 0.00 61 1008.4
20260504030024 62 190 0.0 0.0 0.00 0.00 0.00 61 1008.4
20260504025507 63 190 0.0 0.0 0.00 0.00 0.00 57 1008.4
20260504025008 63 190 0.0 0.0 0.00 0.00 0.00 55 1008.4
20260504024526 64 190 0.0 0.0 0.00 0.00 0.00 55 1008.3
20260504024004 64 190 0.0 0.0 0.00 0.00 0.00 54 1008.3
20260504023504 65 190 0.0 0.0 0.00 0.00 0.00 53 1008.4
20260504023012 65 190 0.0 0.0 0.00 0.00 0.00 53 1008.3
20260504022506 65 190 0.0 0.0 0.00 0.00 0.00 53 1008.3
20260504022004 65 190 0.0 0.0 0.00 0.00 0.00 54 1008.3
20260504021519 65 190 0.0 0.0 0.00 0.00 0.00 54 1008.2
20260504021008 65 190 0.0 0.0 0.00 0.00 0.00 54 1008.2
20260504020504 65 190 0.0 0.0 0.00 0.00 0.00 53 1008.2
20260504020024 65 190 0.0 0.0 0.00 0.00 0.00 54 1008.2
20260504015508 65 190 0.0 0.0 0.00 0.00 0.00 53 1008.2
20260504015010 66 190 0.0 0.0 0.00 0.00 0.00 52 1008.2
20260504014528 66 190 0.0 0.0 0.00 0.00 0.00 54 1008.2
20260504014006 66 190 0.0 0.0 0.00 0.00 0.00 52 1008.2
20260504013508 66 190 0.0 0.0 0.00 0.00 0.00 53 1008.2
20260504013026 66 190 0.0 0.0 0.00 0.00 0.00 54 1008.1
20260504012504 67 190 0.0 0.0 0.00 0.00 0.00 52 1008.1
20260504012004 67 190 0.0 0.0 0.00 0.00 0.00 50 1008.2
20260504011518 68 190 0.0 0.0 0.00 0.00 0.00 50 1008.2
20260504011008 68 190 0.0 0.0 0.00 0.00 0.00 50 1008.1
20260504010506 68 190 0.0 0.0 0.00 0.00 0.00 48 1008.1
20260504010020 69 190 0.0 0.0 0.00 0.00 0.00 48 1008.1
20260504005507 70 190 0.0 0.0 0.00 0.00 0.00 47 1008.1
20260504005005 70 190 0.0 0.0 0.00 0.00 0.00 46 1008.1
20260504004525 70 190 0.0 0.0 0.00 0.00 0.00 45 1008.2
20260504004006 71 190 0.0 0.9 0.00 0.00 0.00 45 1008.3
20260504003511 71 190 0.0 1.7 0.00 0.00 0.00 45 1008.3
20260504003026 71 190 0.0 1.7 0.00 0.00 0.00 43 1008.3
20260504002506 72 190 0.0 0.9 0.00 0.00 0.00 43 1008.3
20260504002012 72 190 0.0 3.5 0.00 0.00 0.00 42 1008.4
20260504001531 72 190 0.0 6.1 0.00 0.00 0.00 42 1008.5
20260504001006 73 190 0.9 6.1 0.00 0.00 0.00 41 1008.4
20260504000505 73 190 1.7 4.3 0.00 0.00 0.00 41 1008.5
20260504000019 73 190 2.6 8.7 0.00 0.00 0.00 40 1008.6
20260503235507 74 190 3.5 8.7 0.00 0.00 0.00 39 1008.7
20260503235006 74 190 3.5 7.0 0.00 0.00 0.00 38 1008.7
20260503234526 75 190 0.9 7.8 0.00 0.00 0.00 37 1008.7
20260503234006 75 190 1.7 7.8 0.00 0.00 0.00 37 1008.6
20260503233508 74 190 2.6 5.2 0.00 0.00 0.00 37 1008.7
20260503233035 75 190 1.7 6.1 0.00 0.00 0.00 37 1008.7
20260503232507 75 190 1.7 7.0 0.00 0.00 0.00 36 1008.7
20260503232006 74 190 1.7 7.0 0.00 0.00 0.00 37 1008.7
20260503231525 74 190 2.6 7.8 0.00 0.00 0.00 36 1008.7
20260503231007 75 190 2.6 7.8 0.00 0.00 0.00 37 1008.8
20260503230508 75 190 0.9 5.2 0.00 0.00 0.00 38 1008.7
20260503230026 74 190 1.7 10.4 0.00 0.00 0.00 37 1008.6
20260503225503 74 190 1.7 10.4 0.00 0.00 0.00 38 1008.6
20260503225006 74 190 2.6 7.0 0.00 0.00 0.00 38 1008.7
20260503224520 75 190 2.6 7.8 0.00 0.00 0.00 38 1008.8
20260503224006 74 190 4.3 7.8 0.00 0.00 0.00 38 1008.7
20260503223503 75 190 2.6 6.1 0.00 0.00 0.00 39 1008.8
20260503223003 74 190 2.6 7.8 0.00 0.00 0.00 39 1008.8
20260503222503 75 190 3.5 7.8 0.00 0.00 0.00 38 1009.0
20260503222003 75 190 2.6 7.0 0.00 0.00 0.00 39 1009.0
20260503221512 75 190 1.7 7.0 0.00 0.00 0.00 39 1008.8
20260503221003 74 190 2.6 7.0 0.00 0.00 0.00 39 1008.8
20260503220502 74 190 1.7 7.8 0.00 0.00 0.00 39 1008.8
20260503220013 74 190 3.5 7.8 0.00 0.00 0.00 38 1008.9
20260503215504 74 190 1.7 8.7 0.00 0.00 0.00 38 1009.0
20260503215008 74 190 3.5 8.7 0.00 0.00 0.00 39 1009.1
20260503214518 75 190 1.7 7.8 0.00 0.00 0.00 39 1009.1
20260503214009 74 190 2.6 7.8 0.00 0.00 0.00 40 1009.1
20260503213506 74 190 2.6 8.7 0.00 0.00 0.00 39 1008.9
20260503213023 74 190 3.5 10.4 0.00 0.00 0.00 39 1009.0
20260503212503 74 190 1.7 10.4 0.00 0.00 0.00 41 1009.1
20260503212003 74 190 3.5 10.4 0.00 0.00 0.00 39 1009.3
20260503211503 74 190 3.5 9.6 0.00 0.00 0.00 40 1009.2
20260503211002 74 190 3.5 9.6 0.00 0.00 0.00 40 1009.4
20260503210502 74 190 3.5 10.4 0.00 0.00 0.00 42 1009.4
20260503210007 74 190 5.2 10.4 0.00 0.00 0.00 40 1009.3
20260503205504 74 190 4.3 8.7 0.00 0.00 0.00 41 1009.3
20260503205006 74 190 2.6 8.7 0.00 0.00 0.00 42 1009.3
20260503204513 74 190 2.6 9.6 0.00 0.00 0.00 41 1009.5
20260503204005 74 190 2.6 9.6 0.00 0.00 0.00 40 1009.6
20260503203505 74 190 3.5 9.6 0.00 0.00 0.00 41 1009.7
20260503203017 74 190 3.5 9.6 0.00 0.00 0.00 40 1009.6
20260503202507 74 190 2.6 11.3 0.00 0.00 0.00 41 1009.6
20260503202010 74 190 6.1 12.2 0.00 0.00 0.00 40 1009.5
20260503201523 74 190 3.5 12.2 0.00 0.00 0.00 41 1009.6
20260503201003 74 190 2.6 12.2 0.00 0.00 0.00 42 1009.6
20260503200505 73 190 1.7 12.2 0.00 0.00 0.00 42 1009.7